User: anonymous   Login
Location: Unspecified
(0.0000°N, 0.0000°E)
Time: 23:47:00
(UTC+00:00)
Language:

Skynet 4D - Orbit

View from above orbital plane
View from above orbital plane
View from above satellite
View from above satellite

Ground track
Ground track

The orbit data is extracted from the following two-line orbital elements,

1 25134U 98002A   21332.51713552 -.00000221  00000-0  00000-0 0  9990
2 25134  11.7205  20.3478 0004255 108.0049 243.7518  0.99153161 86891
Epoch (UTC): 28 November 2021 12:24:40
Eccentricity: 0.0004255
inclination: 11.7205°
perigee height: 36084 km
apogee height: 36121 km
right ascension of ascending node: 20.3478°
argument of perigee: 108.0049°
revolutions per day: 0.99153161
mean anomaly at epoch: 243.7518°
orbit number at epoch: 8689

The dashed part of the orbit path shows where the satellite is in the earth's shadow,  

DLR